GFSFLT2_prec_cthk_000.txt.gz
RH
29 30 34 37 34 42 47 49 50 45 45 45 48 56 55 56 55 54 53 51 50 52 51 51 49 48 47
33 36 37 40 48 49 42 40 37 36 44 53 54 53 54 56 56 57 61 60 56 53 52 52 55 61 56
42 43 42 51 53 44 38 34 34 40 46 49 54 55 55 58 62 61 57 51 46 50 51 48 49 50 51
54 49 58 55 52 44 35 38 40 50 55 59 65 65 63 56 51 48 49 49 47 47 49 49 52 52 47
50 59 55 48 47 42 46 49 62 74 71 75 81 80 74 67 59 53 51 51 53 59 57 57 61 59 59
59 52 48 47 47 55 62 71 70 80 88 81 86 78 77 73 59 63 67 73 78 75 69 57 53 59 61
55 51 54 57 60 66 78 85 84 84 86 79 82 75 70 60 65 72 79 85 95 96 93 89 76 58 51
58 61 64 64 80 90 89 88 89 88 85 78 72 65 63 66 69 77 86 89 97 98 97 99 97 89 65
62 64 75 93 97 93 91 92 91 90 85 85 70 67 68 70 73 73 80 92 98 98 97 97 90 87 83
70 88 93 96 98 98 97 95 94 90 89 93 78 72 70 71 73 69 75 86 98 97 95 86 85 80 74
90 92 95 96 98 99 99 98 95 94 93 97 93 82 79 75 77 69 69 85 95 95 92 84 79 77 67
94 96 96 96 97 98 98 98 97 95 95 99 97 97 93 83 77 73 79 91 90 95 98 89 76 73 66
96 96 97 97 97 97 97 98 97 97 98 98 98 98 96 95 91 85 89 93 97 97 98 90 85 72 67
96 97 96 95 97 98 97 97 97 96 97 98 99 98 92 90 95 94 94 95 96 96 88 84 75 75 73
92 87 82 85 93 98 98 98 98 97 97 97 98 88 95 97 97 93 97 96 91 90 84 79 77 79 77
90 85 80 84 92 98 98 98 97 97 97 98 90 87 91 90 93 96 96 97 98 98 97 92 90 78 75
84 76 78 88 89 93 96 98 98 98 98 97 92 90 87 95 97 96 97 98 98 98 97 91 97 97 81

GFSFLT2_prec_cthk_003.txt.gz
RH
24 26 26 29 34 37 44 50 54 50 49 44 47 47 46 55 58 59 60 60 57 56 59 66 61 61 57
25 25 28 33 33 34 44 47 46 43 41 45 49 49 52 54 54 58 59 61 67 68 69 68 66 60 62
36 33 37 34 39 45 39 36 37 38 38 41 47 58 67 71 69 70 72 68 64 62 62 60 60 60 59
43 42 42 48 51 48 37 39 39 38 44 49 65 74 77 80 82 81 75 65 64 65 61 54 49 50 55
47 56 55 52 50 46 48 45 46 50 66 73 75 75 76 78 79 80 80 73 64 57 56 55 58 58 64
62 59 51 54 55 59 60 64 75 85 86 80 84 79 77 75 69 72 71 71 72 73 74 75 76 77 68
59 55 58 62 70 79 90 92 89 89 91 85 84 76 68 61 62 62 70 72 77 83 87 90 93 92 88
56 62 76 87 93 95 95 94 93 93 91 87 87 85 68 63 61 64 70 77 79 80 89 95 97 98 98
75 87 88 92 97 95 94 96 91 91 92 93 90 90 77 68 64 65 71 77 76 78 91 97 95 95 90
82 85 90 94 98 98 97 96 95 89 94 94 92 93 86 74 69 67 68 72 73 80 96 93 94 89 83
85 87 92 95 96 98 99 98 93 91 96 97 94 92 92 83 76 71 74 73 82 94 96 95 94 93 87
89 91 92 92 89 91 98 98 98 96 96 99 96 98 97 94 91 86 87 87 92 97 98 98 91 94 91
92 89 89 83 80 85 96 98 97 96 97 98 96 89 92 94 92 92 92 91 97 92 94 92 91 88 88
90 88 86 76 80 92 96 95 95 94 96 97 88 96 94 95 97 97 98 97 97 98 88 78 84 81 83
87 83 78 76 85 91 95 96 96 96 94 86 90 92 95 98 98 97 98 97 97 96 96 80 78 79 69
76 78 76 74 80 91 91 94 97 96 94 88 91 92 95 96 97 97 97 94 98 98 97 86 78 81 79
75 78 80 79 79 88 93 90 96 97 97 93 90 97 97 98 98 98 98 97 97 97 97 97 94 77 74

GFSFLT2_prec_cthk_006.txt.gz
RH
19 18 18 21 26 29 32 41 44 47 46 42 43 45 43 45 49 49 49 49 56 56 56 56 65 66 64
19 20 22 29 29 33 38 44 47 43 44 49 49 48 48 49 48 50 52 51 51 58 67 69 65 67 64
28 28 32 38 41 42 43 40 42 44 49 50 52 55 57 57 55 55 56 62 66 69 75 76 76 72 71
40 44 48 46 49 46 46 51 54 64 67 71 74 75 74 75 74 75 74 75 77 78 79 77 74 70 68
50 48 48 45 52 59 67 75 83 88 83 86 88 87 86 83 80 78 73 71 75 78 78 78 72 64 60
46 45 51 58 69 78 81 84 80 91 88 85 90 87 86 85 83 82 71 67 68 69 66 70 76 76 71
47 57 69 76 80 82 86 88 88 89 90 84 86 84 87 87 85 76 68 65 67 71 75 78 78 81 83
71 75 79 82 86 88 87 88 88 89 90 85 89 86 85 85 83 76 65 67 71 73 73 72 75 80 86
78 80 81 84 89 87 87 85 83 87 89 90 89 88 87 82 80 77 66 65 67 69 70 74 77 85 88
78 81 83 83 85 85 83 81 87 84 90 92 91 92 88 87 86 81 70 67 70 73 74 79 90 96 91
80 81 81 83 84 80 81 91 89 89 92 95 85 85 89 91 93 92 90 84 85 89 94 95 95 98 95
83 83 81 78 75 75 87 96 96 94 94 91 86 91 95 95 94 91 94 94 94 96 97 97 88 90 89
84 78 76 75 71 76 87 93 95 94 94 87 92 93 94 94 96 95 94 93 96 97 96 92 90 92 94
76 71 69 72 72 70 86 87 91 92 90 88 92 94 92 93 96 98 98 96 94 98 93 88 91 83 82
78 71 73 75 76 76 85 90 92 93 89 84 92 92 94 97 97 98 98 98 95 96 94 88 90 83 83
79 77 77 76 77 80 83 85 91 94 94 86 90 89 89 92 95 94 98 97 98 98 97 97 87 81 71
82 81 81 78 77 77 79 80 86 93 95 96 88 91 91 91 93 98 97 97 97 98 97 96 84 81 65

GFSFLT2_prec_cthk_009.txt.gz
RH
21 19 22 26 28 34 38 38 37 38 39 40 48 48 45 45 45 45 45 45 54 56 60 64 64 63 62
20 22 26 29 32 36 39 41 41 45 57 63 65 67 67 63 55 52 52 57 57 56 57 57 62 61 60
26 28 31 36 35 35 40 50 60 65 69 75 79 78 79 81 82 81 77 68 60 55 51 51 53 57 56
38 34 35 32 37 48 55 62 69 73 73 78 81 84 84 83 83 82 82 80 80 80 78 73 69 67 67
41 40 33 39 58 62 67 71 74 77 74 81 81 81 81 82 84 84 84 85 85 79 74 74 75 76 79
41 38 45 67 67 71 74 76 70 79 76 77 84 80 83 84 85 82 85 88 83 71 65 62 65 65 67
40 55 71 73 74 74 76 76 75 72 75 76 82 82 85 84 85 83 80 84 73 65 64 68 71 72 71
68 75 77 79 79 79 77 77 72 73 85 81 84 85 82 80 78 83 86 85 72 63 68 70 70 69 71
76 79 78 79 81 80 78 75 69 80 83 86 85 78 77 77 84 89 96 88 73 65 65 67 67 68 68
77 79 80 80 80 83 78 70 80 81 86 89 80 78 80 76 85 91 94 95 92 86 82 82 83 83 81
80 80 79 76 72 74 75 73 83 86 89 92 81 84 84 84 87 93 95 93 95 95 96 95 93 92 89
83 79 72 65 65 70 72 72 86 88 92 93 83 82 87 89 90 90 95 95 96 96 97 97 96 87 90
74 72 70 68 68 70 70 76 82 89 95 92 86 85 89 91 90 88 93 90 96 97 97 92 90 94 91
76 75 74 74 74 72 71 74 76 84 93 93 86 88 89 92 91 92 94 96 96 97 97 98 92 92 86
79 76 77 77 77 74 73 73 74 79 88 91 85 88 89 88 86 92 93 95 98 97 97 96 88 85 69
80 80 80 79 78 77 77 75 74 76 87 93 84 82 83 83 88 91 92 97 97 98 98 94 93 82 57
83 83 84 85 85 83 80 77 75 77 86 94 92 86 85 86 84 94 94 95 96 97 97 96 92 75 65

GFSFLT2_prec_cthk_012.txt.gz
RH
25 28 27 29 32 36 36 31 29 32 39 45 51 54 59 64 65 66 66 66 65 58 52 52 53 57 59
25 25 28 33 35 33 34 32 34 44 53 57 61 63 65 66 69 69 70 72 74 75 74 70 57 56 61
27 27 31 34 33 33 32 41 53 59 62 65 66 66 69 71 72 72 71 74 77 79 80 79 77 65 52
32 35 37 32 35 35 47 63 64 67 67 67 66 64 69 72 70 72 75 75 78 80 83 86 85 81 77
43 40 34 34 42 57 67 68 70 71 66 66 63 64 70 71 73 75 78 78 80 82 81 84 86 84 80
42 43 38 49 64 71 74 72 68 74 71 60 71 72 72 73 75 72 70 71 75 78 80 78 71 68 69
42 45 56 71 74 75 76 76 74 69 68 67 79 74 76 73 67 70 75 80 81 84 80 69 68 67 67
53 65 77 79 82 80 77 73 69 71 75 74 76 78 78 68 70 74 80 88 95 89 76 68 65 67 67
77 82 84 84 84 80 74 72 63 61 70 78 81 82 76 69 77 85 88 90 91 92 85 78 77 75 71
83 83 85 85 83 82 76 70 69 57 68 80 85 83 73 72 79 83 87 92 94 95 95 94 94 92 85
81 80 78 76 75 77 76 76 71 66 71 82 87 84 78 78 77 82 83 88 91 94 97 96 95 93 86
74 74 74 74 76 77 78 78 78 74 72 82 89 84 81 81 83 79 84 88 93 95 96 96 96 94 89
73 75 75 73 73 74 78 77 74 76 75 76 90 88 84 84 84 81 80 84 93 97 97 98 96 97 89
73 74 74 75 77 78 77 76 73 73 77 74 87 92 84 87 86 84 84 89 91 96 97 98 96 90 85
75 78 80 81 82 82 82 80 78 73 71 74 84 94 88 86 86 85 87 93 95 97 96 94 91 85 77
82 82 83 83 84 86 87 86 80 76 74 74 81 90 83 79 82 85 91 93 95 97 98 92 86 89 86
91 92 92 93 92 90 88 84 82 80 76 76 84 92 84 78 76 82 93 92 93 96 96 87 86 88 84

GFSFLT2_prec_cthk_015.txt.gz
RH
29 29 28 26 27 28 29 25 25 27 29 34 39 42 47 53 56 58 60 60 60 61 64 66 66 66 68
30 28 29 26 30 33 31 29 27 31 40 46 51 56 59 61 63 64 62 64 66 68 68 69 70 72 74
30 27 26 31 37 33 29 31 37 46 51 55 62 60 61 64 61 60 64 67 69 69 71 71 72 72 73
28 26 34 40 37 34 34 42 52 59 63 62 64 60 63 59 63 67 70 71 73 71 68 66 68 74 75
30 34 35 33 36 43 50 58 65 72 64 63 66 60 57 65 68 69 73 73 67 68 69 70 70 71 73
41 39 34 40 52 61 68 71 69 73 69 60 67 60 62 68 70 76 73 67 70 73 75 79 80 79 79
38 42 52 63 69 72 77 77 73 67 69 58 61 57 62 70 75 74 69 71 76 81 83 84 83 78 68
50 65 71 75 79 80 79 72 66 64 73 64 56 53 60 73 74 67 68 78 83 87 90 91 90 82 75
71 75 78 78 77 74 68 67 61 58 67 66 59 60 62 71 73 67 74 78 80 82 88 92 95 94 92
68 68 69 70 73 75 76 72 69 60 67 64 62 69 62 76 73 68 71 76 76 79 85 94 96 95 93
64 65 67 71 74 74 77 78 73 68 72 70 63 67 72 78 73 70 74 76 76 79 86 94 97 97 93
64 66 68 68 69 72 77 78 80 79 72 76 68 70 70 81 71 72 76 78 78 80 85 92 96 97 99
67 71 72 72 74 76 79 82 84 83 81 78 75 71 74 83 76 73 77 76 79 83 90 95 97 96 93
72 76 82 84 83 85 84 83 80 80 85 81 77 73 73 85 82 76 79 80 78 86 92 93 96 97 91
79 81 85 89 90 89 88 86 86 81 77 78 78 73 75 88 83 76 78 80 86 92 93 92 92 88 86
85 89 92 93 92 93 93 88 83 82 80 76 73 69 74 85 83 77 79 84 91 94 95 89 85 86 92
91 94 95 96 96 94 94 91 85 80 78 78 74 76 84 84 73 82 83 89 91 94 97 89 83 84 89

GFSFLT2_prec_cthk_018.txt.gz
RH
27 27 27 25 23 22 22 24 23 20 26 31 34 38 42 46 47 48 52 56 57 59 60 62 67 67 64
27 27 25 22 21 24 27 26 22 23 35 39 44 49 52 55 58 60 60 62 62 61 61 63 65 66 65
26 24 22 23 25 27 24 24 30 36 41 47 52 56 60 65 63 62 60 62 63 67 68 68 67 66 66
28 26 26 28 31 29 28 39 44 50 53 58 61 58 62 63 62 61 60 65 71 70 71 67 62 60 61
29 29 31 29 36 45 50 51 56 61 61 60 59 58 57 57 57 58 61 71 74 75 72 67 67 67 64
32 32 32 46 55 57 58 61 57 69 62 55 61 56 56 55 55 60 60 73 80 77 71 73 75 76 76
31 40 50 59 61 61 61 61 58 54 57 50 53 53 56 53 56 56 62 76 78 74 74 77 80 81 82
46 55 61 62 62 61 60 58 54 56 61 59 53 51 50 51 57 55 62 74 78 74 76 78 77 79 83
58 60 59 61 62 61 60 59 53 55 65 64 56 54 51 49 57 60 66 78 72 69 73 77 76 77 83
55 56 56 58 62 65 64 63 63 58 71 66 62 65 51 50 59 63 64 73 69 69 72 74 76 79 82
54 55 58 62 67 71 76 78 75 74 78 77 70 71 71 54 53 61 66 72 68 67 73 74 77 83 86
56 58 63 69 73 77 82 86 89 84 80 87 77 77 73 64 55 59 67 75 69 68 72 75 78 85 93
58 65 73 76 80 83 88 88 89 89 86 83 83 79 77 70 62 63 72 77 68 71 72 74 80 88 87
67 75 80 85 88 90 89 89 86 84 88 83 81 81 76 73 70 71 80 76 72 73 75 81 87 90 85
76 80 85 90 94 95 94 90 89 82 79 79 79 80 76 75 79 83 77 72 72 79 86 85 87 85 82
80 86 90 92 92 93 94 92 88 85 81 76 72 70 68 78 88 81 76 78 82 83 84 83 84 87 84
82 90 94 93 94 94 94 93 88 86 82 77 74 76 80 85 82 84 80 82 83 85 89 83 77 83 83

GFSFLT2_prec_cthk_021.txt.gz
RH
29 25 23 21 17 17 16 17 17 15 20 22 29 34 35 39 40 43 48 49 52 54 58 62 63 63 64
26 24 21 19 18 19 19 18 17 19 26 32 37 43 44 48 54 55 58 60 61 62 62 62 63 64 66
25 23 20 17 20 20 19 21 26 33 38 40 44 47 52 54 56 59 60 60 62 63 62 60 66 69 69
27 23 21 21 23 22 24 33 36 44 46 48 52 51 51 51 53 54 54 57 58 62 63 65 70 72 71
27 26 27 24 25 34 39 41 43 47 45 47 47 45 46 47 49 52 54 57 58 60 63 68 73 73 68
30 30 24 29 39 45 46 47 42 48 44 43 46 42 45 48 49 54 58 57 55 59 59 69 76 74 68
29 26 34 46 49 49 51 50 48 46 45 40 43 41 46 47 53 54 55 56 57 58 64 72 78 74 70
27 39 50 53 54 53 51 52 51 52 56 49 50 48 49 50 54 56 59 57 58 58 63 73 74 71 69
44 53 52 54 56 56 58 59 55 58 70 64 60 57 56 57 57 58 61 61 57 56 64 72 75 69 66
50 50 52 54 59 66 69 69 70 64 76 71 68 68 55 59 64 63 62 63 59 56 60 68 70 66 66
48 51 53 58 68 75 81 83 81 80 84 83 74 74 72 62 61 64 66 61 59 55 56 69 68 65 68
52 54 58 66 73 78 85 87 92 87 83 89 81 80 75 67 64 64 65 60 58 55 58 71 65 65 68
58 62 67 71 76 81 88 89 90 92 92 89 87 82 81 73 68 66 61 59 59 59 71 68 63 66 66
64 67 71 77 85 88 84 86 83 82 90 89 86 84 79 75 73 66 66 69 72 76 71 66 67 72 81
67 69 75 82 87 89 90 90 90 84 81 84 86 84 80 80 78 82 84 80 73 72 76 81 84 86 84
70 73 78 82 82 87 91 91 89 87 82 79 76 75 79 85 90 85 77 78 81 83 82 79 83 84 74
71 77 81 80 81 83 85 87 86 84 82 88 93 96 93 87 84 87 84 85 86 86 87 84 79 77 77

GFSFLT2_prec_cthk_024.txt.gz
RH
33 33 30 25 21 18 16 16 15 13 18 20 22 29 30 32 36 39 41 42 44 46 47 53 56 57 56
36 30 26 22 20 18 16 13 13 15 18 26 29 32 35 38 41 47 47 48 50 51 52 54 54 55 57
31 27 24 20 19 16 15 14 17 22 27 31 34 36 42 44 46 45 45 45 46 47 52 56 56 57 57
27 25 22 19 18 19 17 21 26 33 35 35 36 38 40 38 37 37 37 38 42 44 48 56 57 58 60
27 24 22 21 20 21 27 32 34 36 36 37 37 36 37 37 38 39 39 40 44 46 50 56 57 57 59
29 27 24 22 23 32 39 39 35 40 39 37 41 39 41 43 43 43 43 48 47 47 51 53 56 57 58
29 26 24 26 39 41 41 43 41 42 47 42 50 46 51 51 53 53 51 50 51 51 51 53 57 59 61
24 23 31 44 47 47 46 45 45 52 62 49 54 53 55 57 62 64 61 58 56 57 53 54 55 55 58
23 37 46 47 49 49 50 54 53 57 72 63 60 60 60 60 69 73 70 66 63 59 57 54 54 55 56
40 44 46 50 53 57 62 65 68 61 76 71 68 74 59 63 70 74 73 70 65 62 59 58 57 55 54
41 45 50 54 59 66 73 76 76 79 88 87 70 74 76 67 66 72 70 66 66 64 62 58 55 55 55
46 51 54 59 64 69 78 84 86 88 88 92 80 81 77 73 68 67 69 68 67 65 62 58 55 55 58
51 55 59 61 66 73 77 81 83 90 93 91 86 84 83 76 69 66 64 65 69 64 60 58 60 63 67
56 61 61 65 74 74 72 76 76 77 86 87 84 82 78 78 80 74 75 76 72 73 75 75 73 70 67
62 65 63 73 76 75 76 76 79 76 74 78 84 89 93 94 91 88 88 86 82 79 79 77 76 76 75
67 68 66 75 78 84 88 90 90 90 88 89 91 90 89 87 90 87 83 79 82 85 86 84 86 87 83
68 70 67 75 80 84 87 89 90 90 89 92 93 93 89 84 86 89 87 86 89 90 89 86 87 86 84

GFSFLT2_prec_cthk_027.txt.gz
RH
47 39 35 33 31 27 23 20 16 14 13 15 21 22 26 29 33 36 37 38 38 39 39 41 42 42 45
39 35 37 32 28 24 19 15 13 13 14 18 25 28 31 32 36 38 40 41 42 42 43 45 46 47 48
39 38 32 26 22 19 16 13 14 17 20 24 27 30 35 36 38 38 37 35 35 35 35 36 42 46 47
34 30 27 21 20 19 16 15 19 22 26 29 31 33 35 34 32 31 31 31 32 36 37 36 39 42 45
29 25 22 22 22 19 19 22 25 29 30 31 33 34 35 36 38 38 38 38 38 42 41 43 45 44 46
26 26 25 22 21 21 28 33 31 34 35 32 38 38 42 44 46 47 48 48 52 50 48 46 46 49 48
26 25 23 19 24 32 38 37 39 39 42 37 47 46 51 53 58 58 57 59 59 58 55 54 55 56 53
22 19 21 28 39 39 40 41 42 47 58 47 51 51 54 55 61 64 69 69 68 67 65 62 62 59 58
18 21 34 38 40 43 45 47 46 50 61 63 58 57 58 55 60 68 75 77 74 71 69 66 61 58 58
21 33 36 41 46 49 52 53 58 55 63 64 64 71 58 58 63 71 75 81 80 74 70 66 64 61 58
32 36 43 46 50 54 57 63 64 63 68 72 65 70 73 62 59 68 72 73 74 72 70 67 64 66 62
39 44 46 52 54 55 64 69 69 69 70 77 72 75 74 70 66 70 76 75 73 69 68 67 67 66 65
46 48 53 56 56 59 68 72 74 78 83 87 88 89 91 90 88 83 77 75 79 76 75 72 69 66 62
50 54 56 59 57 63 68 73 75 78 83 85 86 88 89 91 91 84 89 90 86 86 83 83 83 81 79
55 57 60 61 58 65 70 74 77 76 78 86 92 94 94 91 87 89 86 85 81 81 83 83 80 79 78
60 62 64 62 57 65 72 77 77 77 80 84 88 90 89 89 90 86 84 84 85 84 85 86 86 88 85
64 65 67 64 60 64 70 73 75 78 80 84 88 92 90 87 87 91 83 86 88 86 88 89 85 84 82

GFSFLT2_prec_cthk_030.txt.gz
RH
66 62 55 45 37 33 29 27 23 18 15 14 17 23 24 25 26 30 32 33 35 37 37 38 39 41 41
62 54 42 37 32 30 27 21 17 15 16 18 19 20 23 26 29 30 32 34 35 37 38 39 40 40 40
50 41 35 33 31 25 22 17 16 16 18 20 21 23 25 28 32 32 32 32 33 34 38 39 39 40 40
38 35 35 29 26 23 21 18 18 18 21 24 25 26 28 29 30 31 32 33 38 39 39 39 39 39 42
35 35 30 26 24 23 21 20 20 23 23 24 26 29 33 36 39 42 43 44 45 49 48 50 50 49 49
32 30 27 25 25 23 24 27 27 26 26 29 34 35 39 42 47 49 53 56 57 60 57 56 55 56 56
30 28 28 25 24 26 29 30 31 33 34 31 38 39 44 46 50 54 57 60 62 62 62 60 58 59 61
26 26 25 25 28 31 31 34 36 38 42 38 43 41 42 44 51 55 60 64 64 64 65 63 64 64 66
24 23 22 25 30 33 37 39 38 40 49 51 49 47 45 44 48 51 56 61 64 65 63 64 66 68 69
18 19 27 32 38 42 44 46 46 47 57 62 60 63 56 59 56 59 60 63 63 64 66 67 68 68 66
18 29 33 41 45 48 50 51 51 59 66 69 64 67 69 64 68 72 73 75 76 73 72 71 69 68 65
32 36 44 47 50 52 55 54 56 65 70 73 70 73 74 72 70 73 76 76 78 79 84 86 86 80 74
42 48 49 51 54 56 58 55 60 68 72 73 73 76 79 79 77 77 75 78 82 80 81 82 84 86 85
52 52 53 56 59 60 56 54 58 65 72 73 74 78 81 85 84 78 81 81 81 80 81 80 79 83 85
57 58 60 62 63 63 60 60 64 64 64 69 72 76 83 87 83 85 82 78 77 78 81 80 79 82 85
62 62 64 65 66 65 64 64 63 63 66 65 64 67 77 83 91 86 82 76 79 85 84 80 79 84 87
64 66 67 68 68 68 68 65 61 58 58 60 61 68 75 81 85 96 88 87 83 80 81 86 86 86 88

GFSFLT2_prec_cthk_033.txt.gz
RH
90 87 80 72 64 56 47 42 34 26 23 20 17 19 24 24 24 24 24 28 32 33 33 34 35 36 42
87 79 73 66 58 49 42 31 27 23 18 17 19 19 19 19 21 25 26 28 28 29 31 32 36 36 37
80 71 63 54 47 38 30 28 22 18 18 20 21 21 22 21 23 24 23 25 27 29 31 32 34 36 39
71 64 53 42 35 31 29 23 20 19 23 23 23 23 23 23 25 25 26 28 29 31 37 39 40 42 45
57 47 40 35 36 30 27 23 22 24 24 24 25 27 27 29 31 32 33 34 34 35 40 41 42 47 51
43 38 38 31 28 26 26 29 29 27 27 29 30 30 31 35 38 36 35 36 37 39 43 44 46 52 55
38 33 31 28 26 27 28 30 30 29 31 31 32 31 37 41 44 43 42 41 43 44 45 46 47 55 57
28 27 25 24 26 27 30 33 33 35 37 34 35 36 41 49 50 50 51 51 51 51 54 54 52 53 59
20 19 20 20 24 29 32 36 38 41 42 40 36 41 48 54 55 55 56 57 59 61 63 66 69 65 60
15 15 17 25 32 35 40 43 45 43 43 42 43 50 51 55 58 61 64 67 67 67 68 68 70 74 73
13 21 29 35 39 45 47 47 47 48 49 49 48 56 59 54 58 64 68 72 73 72 70 72 74 76 80
28 35 39 45 49 48 49 51 51 51 52 54 55 60 61 58 58 63 71 75 74 73 74 75 76 76 81
40 45 49 50 50 53 56 56 55 55 57 60 62 62 62 59 59 62 70 76 79 76 75 76 75 77 75
47 51 53 55 56 58 58 56 56 59 61 62 60 59 57 56 60 65 74 79 78 75 72 76 79 80 76
54 56 57 58 60 60 60 59 59 57 55 55 55 55 54 55 59 69 77 81 78 77 77 77 79 80 78
58 58 59 60 61 61 61 59 57 58 55 56 59 57 51 45 62 73 82 83 84 85 84 79 82 85 83
60 60 60 61 60 61 63 63 61 60 62 65 64 59 52 48 55 88 89 86 87 84 84 81 77 76 80

GFSFLT2_prec_cthk_036.txt.gz
RH
95 93 95 97 96 88 82 77 70 63 52 42 36 30 26 27 25 26 28 27 26 27 31 32 31 32 31
98 97 97 97 93 82 75 68 63 50 41 33 27 25 24 22 22 22 27 26 25 25 27 26 27 31 32
98 98 92 86 84 78 73 62 47 38 30 27 25 24 23 22 22 22 23 21 22 23 25 27 28 29 34
95 90 87 82 76 67 55 49 45 33 27 25 24 24 25 25 22 21 21 21 22 23 25 28 30 31 32
89 85 80 72 57 50 44 39 31 22 23 28 29 27 26 24 23 23 24 25 27 29 30 34 38 38 38
75 62 50 46 40 34 29 26 25 21 29 31 31 29 27 26 27 28 29 30 32 34 39 43 43 43 45
43 34 30 27 26 24 25 26 27 28 31 29 31 30 31 31 32 33 34 36 38 42 42 44 47 49 51
24 25 25 24 24 26 23 24 28 31 36 35 37 37 37 36 36 39 42 45 47 47 48 52 54 55 57
19 16 14 14 15 20 24 31 34 40 43 44 42 41 40 37 40 46 50 52 51 53 55 58 59 61 60
18 15 11 13 20 27 33 39 46 47 46 45 46 46 40 39 45 51 54 55 54 56 60 65 67 67 65
11 13 21 29 34 38 43 47 47 48 49 50 48 50 50 45 46 49 51 50 52 57 65 70 71 72 70
22 31 35 38 42 45 48 50 52 52 53 55 54 56 53 48 46 44 46 47 51 59 71 74 75 74 70
34 38 41 45 48 50 52 53 54 55 57 59 57 55 51 49 50 49 48 41 53 65 73 75 76 75 69
41 44 47 50 50 52 55 58 59 60 58 56 56 56 54 55 57 48 45 50 54 71 76 76 80 81 77
46 49 52 53 55 59 60 61 59 59 60 58 60 61 60 58 52 44 45 47 60 78 81 80 82 81 80
53 56 58 59 59 61 61 61 63 65 64 61 59 60 60 56 47 41 45 52 70 83 86 83 81 85 87
58 60 62 63 64 64 64 65 66 68 67 66 65 64 60 50 43 53 56 56 76 85 86 86 84 83 89

GFSFLT2_prec_cthk_039.txt.gz
RH
96 90 87 86 96 96 95 95 94 89 82 79 78 74 64 54 43 36 34 36 37 35 33 35 38 37 36
94 95 90 96 97 95 92 91 83 83 80 79 71 60 51 44 40 35 32 33 33 32 30 30 32 34 34
93 92 97 92 91 92 92 85 79 76 68 62 53 44 36 32 31 29 28 26 25 27 27 26 26 27 26
93 87 96 94 90 86 81 76 69 58 44 36 31 27 24 23 23 23 23 22 22 20 20 21 24 25 28
97 96 92 80 73 71 63 51 39 30 23 20 22 22 21 22 21 21 20 20 21 22 24 26 30 32 35
86 79 72 62 51 40 34 26 22 17 20 18 19 18 19 20 22 23 24 25 25 27 28 34 36 38 41
56 46 36 31 26 24 21 19 16 11 18 17 20 22 24 26 27 28 28 29 30 31 34 37 43 46 47
24 22 22 22 20 18 16 15 14 20 28 27 29 30 31 31 32 32 32 33 34 36 38 42 49 50 51
18 15 13 11 10 11 11 16 23 28 34 38 36 35 33 35 38 39 38 37 36 37 42 47 49 52 53
14 16 14 10 11 16 26 29 36 40 40 41 40 42 40 41 43 42 38 37 37 40 42 44 47 52 55
13 12 15 23 29 32 35 38 41 43 45 49 48 49 49 45 41 43 42 42 43 43 41 41 44 53 64
15 22 29 33 36 39 41 44 46 48 51 53 52 51 49 46 44 46 46 44 42 38 37 39 46 62 71
27 32 36 38 41 44 45 46 49 51 53 55 54 54 53 51 50 49 47 40 34 38 39 43 56 73 76
34 37 40 43 46 48 49 51 53 54 56 57 60 60 58 57 55 53 53 44 34 40 43 53 73 79 78
39 43 46 48 50 53 54 57 58 58 58 64 66 66 64 61 59 57 57 43 41 46 51 60 79 84 81
46 49 51 53 54 56 58 60 60 60 61 65 68 68 66 64 66 59 60 50 41 49 55 64 80 87 84
51 54 57 58 59 60 61 62 63 64 64 65 68 70 65 60 63 69 64 57 46 49 55 65 80 84 87

GFSFLT2_prec_cthk_042.txt.gz
RH
99 98 98 96 94 95 92 87 87 86 86 90 81 78 76 75 69 64 58 54 54 57 52 49 49 49 46
96 98 95 96 93 96 97 92 88 92 93 83 75 69 68 67 60 56 51 49 49 49 49 47 45 44 43
98 94 92 97 96 98 90 89 88 87 85 72 64 55 49 45 40 36 34 31 33 35 34 33 31 29 29
90 87 87 86 94 91 89 80 77 75 62 53 43 34 27 25 23 23 21 20 21 23 24 24 23 22 24
94 93 92 95 89 81 75 64 52 34 28 20 17 16 15 17 18 18 17 18 22 24 26 27 27 28 29
94 94 82 73 62 45 33 27 20 14 14 10 12 12 14 16 18 18 21 25 28 29 30 30 31 31 32
74 64 43 34 27 21 20 17 12 11 13 9 16 16 19 21 23 25 26 27 29 29 30 31 33 34 35
33 24 20 19 17 16 13 10 10 11 19 18 23 24 26 28 29 29 30 32 34 34 34 34 36 36 37
18 15 13 11 11 11 10 11 15 21 25 28 28 28 29 31 33 36 37 36 36 35 35 36 38 39 41
15 12 12 11 11 14 18 23 27 30 33 34 35 36 36 39 40 39 39 39 40 40 39 37 42 43 41
12 11 12 16 23 26 29 32 35 37 38 41 42 43 44 40 42 42 42 43 42 42 38 35 34 37 41
12 15 23 27 30 33 36 39 40 41 43 46 46 47 46 46 45 46 46 45 44 43 36 33 34 37 38
22 27 30 33 35 38 41 43 44 46 48 50 51 51 51 53 51 50 49 48 47 46 41 35 36 38 38
29 31 34 38 41 44 45 47 48 49 52 54 55 55 55 58 57 54 55 54 49 49 48 39 37 41 45
33 35 40 44 47 50 51 52 54 54 55 57 58 60 61 61 59 59 55 53 53 51 50 45 36 42 48
37 42 46 50 53 56 58 59 59 60 61 63 64 64 63 62 66 61 60 57 55 55 54 50 38 41 49
45 49 53 57 61 63 65 67 67 68 71 72 71 70 66 63 64 69 67 63 59 57 55 53 40 42 54

GFSFLT2_prec_cthk_045.txt.gz
RH
91 91 92 93 98 98 96 98 93 97 97 97 96 92 85 83 80 79 71 60 57 59 58 58 58 58 59
93 98 90 89 93 98 99 97 94 93 95 95 93 89 82 83 76 70 60 56 52 52 49 46 46 46 47
94 95 98 99 98 95 92 88 87 90 92 93 88 79 73 62 55 52 48 40 36 35 34 34 34 34 34
95 98 98 96 94 93 94 92 96 93 84 74 60 45 34 27 25 21 18 16 16 18 21 23 24 24 24
96 96 94 89 90 95 96 87 79 58 37 24 16 14 13 12 13 13 13 14 15 17 22 24 25 25 25
92 95 92 94 92 82 62 37 21 21 22 13 15 10 11 11 13 14 16 18 22 26 26 27 28 28 29
91 89 78 65 50 34 26 21 19 14 13 8 12 13 16 18 20 22 24 25 26 27 28 30 32 32 32
38 36 33 28 22 18 15 14 13 12 13 14 19 22 25 26 26 27 28 29 31 32 32 31 31 32 34
19 17 17 17 19 16 13 13 13 18 23 25 27 28 29 29 30 32 34 34 34 34 34 35 35 34 34
22 20 16 15 16 14 14 21 26 28 29 31 32 33 34 35 37 37 38 37 38 38 39 38 36 34 32
17 16 16 15 16 23 27 29 30 32 34 37 37 38 41 42 40 40 41 42 43 43 42 42 40 36 33
15 14 16 23 26 29 31 33 35 37 38 41 41 42 44 45 44 44 46 48 48 49 48 47 46 43 40
16 22 25 27 30 32 35 38 40 42 43 44 45 46 48 48 46 46 48 49 52 52 51 49 48 48 44
26 27 30 32 35 38 40 43 44 46 48 49 50 51 51 50 51 50 53 52 53 53 51 49 48 49 47
29 30 33 37 40 44 46 49 51 53 56 57 57 57 57 57 55 55 54 55 56 56 55 51 49 49 47
32 35 39 42 46 50 54 57 59 62 64 68 68 66 64 62 64 60 60 61 62 61 61 59 51 50 49
35 39 43 47 52 57 62 66 69 71 73 75 75 74 68 65 69 74 67 68 68 65 63 62 55 49 48

GFSFLT2_prec_cthk_048.txt.gz
RH
82 91 96 96 93 91 97 98 98 98 98 98 96 96 97 97 95 95 93 86 80 75 75 69 67 63 62
89 94 98 96 99 97 96 98 99 97 97 97 94 91 90 91 90 89 87 82 75 65 63 58 54 51 51
98 93 97 98 98 98 98 98 98 98 95 94 95 93 93 90 87 76 67 61 55 47 43 39 37 34 32
93 97 97 98 97 98 98 97 97 94 91 94 87 81 74 59 45 30 24 21 19 20 22 24 24 25 24
87 91 90 93 94 95 95 95 93 93 87 77 59 32 21 20 18 18 15 13 13 14 15 21 22 23 23
88 89 86 89 89 92 94 90 85 59 41 29 23 14 11 11 11 12 12 14 15 19 21 24 25 25 26
84 82 77 67 63 60 50 41 30 25 22 10 11 8 12 14 16 17 19 21 22 22 23 24 25 28 29
18 18 18 18 18 17 17 17 16 16 15 10 12 16 19 21 22 23 24 25 25 26 27 28 28 28 27
18 20 20 20 19 18 18 19 16 14 16 18 21 22 24 24 25 26 28 30 31 31 31 30 31 32 32
22 22 22 20 17 17 17 15 16 21 24 25 27 28 27 28 30 32 34 35 35 35 35 35 36 36 35
17 17 16 15 14 14 19 24 27 29 31 33 33 34 35 35 36 38 38 38 39 40 42 42 42 41 40
15 15 15 17 21 25 28 30 32 34 37 39 39 40 42 43 43 41 41 41 42 44 45 46 46 46 45
15 18 23 26 27 29 31 33 37 39 42 43 45 46 47 48 48 48 48 44 44 45 47 48 48 49 48
24 27 28 30 31 32 35 38 42 45 48 50 52 53 53 54 54 54 56 54 55 53 49 48 50 52 52
29 31 32 33 35 37 40 44 47 51 56 59 60 61 61 61 62 63 63 63 63 63 61 55 55 57 56
35 36 35 36 38 41 45 49 52 57 63 69 72 71 69 68 70 69 71 70 71 68 66 60 55 63 60
38 38 37 39 43 47 51 54 59 64 72 79 84 85 79 76 80 86 78 79 74 71 70 64 57 58 58

GFSFLT2_prec_cthk_051.txt.gz
RH
68 72 79 92 84 84 90 96 99 96 97 97 97 98 97 98 97 96 97 96 96 97 96 94 93 88 82
68 70 88 91 93 91 97 98 93 94 98 94 97 98 98 98 96 96 96 93 91 90 87 84 82 77 71
67 75 82 88 91 91 91 98 97 98 98 97 97 96 95 92 91 92 93 91 81 80 76 64 56 51 48
71 77 77 78 86 89 92 94 97 96 95 95 96 94 93 91 91 86 74 60 42 32 29 30 29 31 31
74 78 80 82 84 83 86 87 89 92 93 95 93 92 86 76 59 36 26 21 20 19 16 14 17 20 21
51 53 58 62 70 70 66 67 76 80 82 79 62 46 30 19 12 8 8 9 10 12 17 22 23 25 25
39 41 41 39 37 36 34 30 26 21 18 14 13 12 11 9 9 11 13 15 18 20 24 27 28 27 26
15 17 18 18 19 19 18 18 18 17 17 13 12 11 14 14 16 18 21 23 25 25 25 25 25 25 25
20 22 22 21 21 18 16 15 14 13 13 13 13 16 18 20 21 23 25 26 27 28 28 29 29 29 29
21 21 19 17 16 14 14 15 15 16 19 21 24 25 25 26 27 29 30 31 33 33 34 34 33 31 31
17 15 13 13 14 14 15 20 24 27 29 30 30 32 34 32 31 35 37 37 37 38 38 37 36 35 35
15 14 14 16 19 23 26 28 29 31 34 35 35 36 38 38 38 38 39 41 42 42 41 40 40 39 40
16 18 21 26 29 30 32 32 32 35 37 38 40 41 43 44 44 46 46 46 46 46 46 45 45 45 44
22 26 30 32 34 34 35 35 36 39 41 44 47 49 50 52 53 55 62 58 60 58 55 52 51 49 47
26 30 35 38 38 39 38 38 39 43 48 52 54 55 57 59 60 64 68 72 73 72 70 64 63 63 60
32 37 40 40 39 40 41 41 43 48 52 57 61 63 64 67 73 73 78 80 86 82 79 74 69 73 68
36 39 42 39 41 41 41 42 45 51 57 61 66 68 68 65 68 83 84 92 93 89 89 84 72 70 71

GFSFLT2_prec_cthk_054.txt.gz
RH
52 54 53 54 58 64 74 78 88 96 98 96 95 96 95 97 98 98 98 98 98 98 97 96 98 98 98
55 54 54 58 62 65 72 80 86 96 98 95 93 92 95 96 96 95 97 97 98 98 98 96 93 94 93
55 55 56 60 65 67 71 72 78 87 91 93 95 95 98 97 97 98 97 97 96 97 97 91 86 82 78
50 53 54 53 57 60 67 73 76 79 81 89 95 94 95 95 95 97 97 97 96 93 81 70 57 49 43
37 39 40 43 45 48 50 50 51 51 57 69 79 87 90 89 89 90 86 76 62 47 33 30 26 21 21
33 35 37 40 41 41 41 42 42 42 42 43 42 41 38 35 31 26 21 17 13 10 10 10 13 19 20
18 19 20 20 19 18 17 17 16 15 15 13 13 13 13 13 13 13 12 13 15 16 19 23 24 25 27
18 19 20 20 19 17 16 15 13 12 12 10 10 9 11 12 11 11 12 14 16 18 22 25 27 27 28
21 21 22 22 20 16 15 14 12 12 13 15 15 16 17 16 17 18 20 21 22 23 24 25 25 25 25
21 19 18 16 15 14 14 15 16 18 22 23 23 25 24 24 24 26 26 27 27 28 30 30 30 29 29
20 18 16 15 16 16 18 21 26 29 29 29 30 31 32 30 29 31 31 31 33 35 36 36 36 35 35
20 18 17 18 22 26 29 31 32 33 34 35 34 33 33 33 33 35 36 37 38 40 41 42 41 41 40
21 20 22 26 29 32 34 35 36 35 38 39 38 37 38 39 40 43 45 47 47 46 46 47 46 46 45
24 25 28 32 35 37 38 40 38 40 42 42 42 42 43 45 47 48 53 53 60 62 61 59 56 55 55
30 32 35 38 40 41 42 40 39 43 45 47 46 45 46 48 50 54 58 61 64 69 72 70 70 71 70
36 36 38 40 43 45 43 41 42 43 44 47 49 50 52 54 57 56 57 59 63 65 72 76 78 84 82
41 40 40 42 44 43 40 41 46 47 48 49 51 54 54 50 50 59 56 61 60 60 63 66 66 77 83

GFSFLT2_prec_cthk_057.txt.gz
RH
48 49 51 51 48 48 51 53 57 64 73 87 94 96 95 93 95 97 96 97 97 97 97 98 98 97 97
50 50 51 48 47 47 50 53 58 62 68 76 84 90 92 92 89 91 94 94 95 97 97 98 96 98 98
51 44 43 43 38 38 42 45 49 52 57 65 70 77 86 90 91 92 93 95 96 97 97 97 96 97 97
33 29 29 31 32 33 36 39 41 42 44 44 48 54 64 75 85 90 93 93 92 94 95 96 96 89 87
27 29 31 32 32 33 33 34 35 37 39 40 41 43 45 50 55 60 65 69 76 83 81 78 71 65 58
23 24 25 25 25 24 23 21 19 17 17 16 16 16 18 18 20 21 22 21 21 20 20 19 19 25 28
18 19 19 19 17 17 16 15 14 13 11 10 10 10 10 10 10 9 9 10 10 11 11 13 17 21 22
21 21 20 19 19 18 17 15 13 12 12 12 12 14 15 14 14 14 14 15 15 16 17 21 23 24 25
23 22 21 20 18 18 16 14 14 14 16 18 20 20 20 19 19 20 21 22 23 24 26 26 26 26 25
24 22 21 19 18 17 16 16 18 23 25 26 27 27 25 24 25 26 25 24 25 25 26 27 29 29 27
24 22 21 21 19 19 20 24 27 30 31 32 32 32 30 30 29 29 28 28 28 29 30 32 33 33 33
26 25 24 23 24 26 28 30 33 35 37 37 37 35 35 35 33 34 35 35 34 34 34 35 36 38 38
31 30 30 31 32 34 35 37 38 40 41 42 40 38 39 39 37 37 39 40 42 43 43 42 42 42 41
36 36 36 38 39 40 40 41 42 44 45 43 41 41 43 43 42 40 44 44 48 49 49 49 49 50 51
41 41 42 44 44 44 44 44 45 45 44 44 43 43 45 45 43 45 47 49 51 51 50 50 53 57 59
47 48 48 49 49 48 47 47 46 44 43 44 45 46 48 47 46 46 45 48 51 50 49 47 46 50 52
54 54 54 53 52 52 51 48 45 43 45 46 47 49 50 47 44 49 51 54 54 52 53 52 48 48 49

GFSFLT2_prec_cthk_060.txt.gz
RH
47 48 50 48 51 52 47 44 44 45 48 51 54 61 71 81 89 91 92 94 94 96 95 95 95 95 96
46 48 51 50 50 45 37 37 40 43 44 45 47 49 58 69 79 86 87 89 89 89 87 91 96 96 96
50 52 42 33 30 32 32 33 37 39 40 40 40 41 45 50 55 67 80 84 87 86 90 92 95 97 97
43 35 30 29 29 30 31 32 32 33 34 36 37 38 39 41 44 48 51 57 62 70 79 84 89 94 96
27 26 26 27 29 28 28 28 27 27 28 29 29 30 31 34 36 38 40 42 46 50 54 58 60 70 80
21 24 24 24 22 21 19 18 20 16 14 13 11 10 10 10 11 13 15 17 18 19 19 18 18 18 20
20 22 22 21 21 21 20 19 19 17 14 12 11 11 11 11 11 11 11 10 9 9 10 10 10 11 13
23 23 23 23 23 22 21 19 18 18 14 15 16 16 17 17 17 17 16 14 13 13 13 14 19 22 22
24 24 25 24 23 22 21 20 20 20 18 20 22 22 23 23 24 24 22 21 20 20 20 24 25 27 27
28 28 27 27 24 23 22 21 22 24 24 25 27 28 29 30 30 30 28 26 25 24 24 24 24 24 25
34 32 30 29 28 28 29 30 29 30 30 33 34 36 37 36 36 35 33 31 30 28 27 27 28 28 28
36 36 34 33 34 36 36 37 37 39 39 39 39 40 41 41 38 37 37 37 36 36 35 34 33 31 31
37 38 38 40 42 42 42 44 45 45 45 45 45 46 46 43 40 38 39 40 42 42 41 39 37 37 38
40 41 42 44 47 47 48 50 50 50 49 50 50 49 44 42 40 40 43 44 45 46 47 44 41 42 42
45 46 48 49 51 52 52 53 54 53 55 53 50 45 42 43 42 43 44 46 48 48 46 43 44 46 45
52 53 53 54 56 56 56 56 56 55 53 48 42 40 41 42 43 45 46 47 47 46 46 43 43 48 46
57 57 57 59 60 60 58 58 55 50 41 38 40 41 44 46 48 47 47 49 48 47 49 49 46 48 48

GFSFLT2_prec_cthk_063.txt.gz
RH
43 45 46 45 46 45 47 47 43 39 38 38 42 41 41 43 48 57 68 77 85 88 93 98 98 96 94
41 44 45 47 40 40 39 32 28 32 35 35 37 37 40 40 43 48 54 63 75 83 88 88 87 87 87
46 47 48 40 34 28 26 27 28 30 30 32 34 38 38 38 39 42 45 47 50 54 57 63 71 77 83
39 35 30 26 26 26 27 29 30 32 32 31 30 31 33 34 35 35 36 37 40 44 46 48 49 52 56
28 27 24 24 24 25 26 25 25 22 24 25 26 27 27 28 28 28 31 33 34 36 40 41 43 45 48
22 27 27 25 25 22 21 19 22 21 19 17 16 14 13 12 11 11 12 14 17 22 25 28 30 32 33
21 23 25 23 23 22 23 22 23 23 19 17 16 15 14 13 12 12 12 12 12 12 12 11 11 11 10
24 24 24 24 24 24 24 24 23 26 20 18 19 19 19 19 19 19 19 18 18 17 17 16 14 13 16
27 26 26 27 27 26 26 26 25 27 24 25 25 23 23 24 24 26 27 26 27 26 25 24 22 24 25
29 29 29 31 31 31 30 29 29 32 33 32 31 30 31 34 33 34 34 33 33 33 31 28 27 26 25
32 32 33 33 33 34 34 35 36 38 38 39 40 40 41 40 40 40 40 40 40 37 35 34 32 29 28
36 35 35 36 35 37 38 40 43 44 43 44 46 47 47 46 45 46 45 43 40 37 37 37 37 37 36
39 38 38 39 40 41 43 46 48 49 50 51 52 53 52 51 49 45 38 35 36 36 38 39 39 40 40
44 44 44 44 45 47 49 51 53 54 55 55 55 55 53 49 39 33 35 37 38 39 40 42 43 43 43
51 52 52 51 51 52 53 53 54 55 56 56 54 47 39 35 34 36 37 38 40 41 42 43 43 43 42
58 58 57 57 57 56 55 56 57 57 54 46 40 37 34 35 37 38 41 42 45 47 48 45 38 39 42
64 64 64 63 63 63 61 60 57 50 43 40 39 37 38 38 40 46 45 47 49 50 46 41 40 40 44

GFSFLT2_prec_cthk_066.txt.gz
RH
42 40 39 40 42 43 44 43 44 40 34 34 34 35 35 35 35 38 41 44 51 58 68 74 84 88 92
40 39 40 43 44 46 33 29 28 26 25 29 33 34 34 35 37 38 38 41 46 50 55 59 61 65 70
41 43 43 43 41 33 26 23 24 26 28 29 29 30 32 35 36 36 34 36 40 43 46 49 51 56 56
31 34 31 27 25 23 23 25 25 27 28 28 29 31 32 34 34 33 33 33 34 36 38 41 43 44 46
24 25 23 20 20 21 23 23 22 21 20 20 21 23 24 25 26 27 28 29 29 29 31 32 36 39 41
22 21 23 23 21 21 21 20 21 20 19 20 20 19 18 16 15 14 14 13 13 13 15 18 22 26 31
23 24 25 23 23 22 22 22 22 22 21 21 20 20 18 17 17 17 16 16 15 15 15 14 14 14 15
28 27 26 25 25 23 24 24 26 25 25 24 24 24 24 24 24 24 23 22 23 23 23 22 21 20 19
30 28 27 26 26 27 27 27 28 30 30 31 30 29 30 30 31 31 31 33 34 34 33 32 31 30 29
32 32 31 30 29 29 29 30 31 33 35 35 35 37 37 37 39 41 41 41 41 40 40 39 37 36 34
35 35 35 33 32 32 33 35 36 38 39 41 42 43 44 43 44 47 47 46 46 45 43 39 35 32 30
42 41 40 38 37 37 38 40 41 43 45 47 48 49 49 50 50 50 48 46 41 32 28 29 30 31 33
48 47 47 45 44 43 44 46 47 48 50 52 52 52 52 52 52 48 37 30 28 29 31 32 34 36 37
54 54 53 51 50 51 50 51 51 51 53 53 54 55 55 52 44 35 32 30 30 32 32 34 36 37 38
57 56 57 57 55 55 55 57 57 56 56 56 56 54 47 40 37 34 32 32 34 35 35 35 36 39 42
58 59 61 62 63 63 62 62 63 63 62 60 56 45 40 39 38 37 37 37 40 40 39 40 39 42 45
61 63 68 71 70 70 69 68 68 67 66 59 45 41 41 40 43 44 42 42 42 40 41 42 43 44 41

GFSFLT2_prec_cthk_069.txt.gz
RH
55 50 42 41 40 38 39 41 40 40 35 27 31 32 33 34 35 34 35 35 38 41 45 53 60 64 71
44 42 39 43 41 41 41 42 29 26 23 22 24 27 30 33 35 37 37 37 37 40 45 47 50 52 52
44 41 41 42 41 38 33 28 24 24 25 24 25 26 26 28 30 35 36 36 35 35 40 42 44 47 48
38 35 34 34 31 28 25 25 26 26 26 25 25 26 27 27 31 33 32 34 35 34 34 36 37 38 40
30 29 25 23 21 23 24 24 24 22 21 20 19 18 19 20 24 27 28 29 29 30 30 30 31 33 33
27 24 23 24 25 23 22 22 21 20 21 22 20 19 20 20 19 18 17 16 15 16 15 15 15 16 18
27 26 26 27 28 26 23 23 22 22 21 22 22 22 22 22 22 22 21 20 20 20 20 18 18 18 18
29 30 31 30 29 28 25 24 25 24 25 25 25 26 27 28 28 28 28 28 29 29 29 28 28 28 28
33 33 33 32 31 30 29 28 28 28 30 30 30 31 31 31 33 34 35 36 37 38 39 39 38 37 36
34 36 36 36 36 35 34 32 31 32 34 35 35 36 37 38 40 40 40 40 41 43 44 44 43 41 39
39 40 40 44 42 40 38 37 37 37 38 39 40 41 42 43 44 45 45 46 48 47 45 43 36 28 24
44 45 50 50 48 47 44 43 44 43 44 45 46 48 49 49 50 50 50 50 50 47 38 29 26 25 27
51 52 55 56 55 52 50 49 49 50 51 51 52 52 53 54 55 53 52 51 49 38 32 28 28 29 30
58 59 61 61 58 56 54 53 53 53 54 55 55 56 56 55 57 57 54 47 38 33 30 30 31 32 32
63 67 62 61 59 61 59 59 60 57 56 58 59 60 60 60 60 57 45 40 36 35 34 33 35 36 36
69 65 63 64 65 66 67 67 68 66 64 63 63 63 62 65 61 46 42 41 39 38 37 36 35 36 36
71 67 66 67 72 75 74 73 73 72 69 69 70 70 72 68 52 47 44 40 38 37 36 37 37 37 38

GFSFLT2_prec_cthk_072.txt.gz
RH
64 67 68 63 55 47 40 40 40 41 38 35 26 28 31 32 33 34 35 33 32 35 38 42 46 54 61
62 61 60 56 45 43 42 42 43 37 28 27 26 25 25 28 31 32 32 32 32 36 34 36 39 44 51
58 57 54 48 45 44 42 39 33 26 24 24 26 27 27 29 29 31 33 36 36 36 35 37 41 42 44
56 56 52 43 37 34 31 27 25 27 27 26 25 26 26 27 28 31 31 32 34 37 36 35 34 37 38
57 52 42 33 27 26 27 26 27 25 25 22 21 20 19 20 23 25 28 31 33 34 34 33 32 32 33
39 36 31 27 25 28 25 24 24 22 23 22 22 21 19 19 20 20 19 18 19 19 20 20 22 24 26
30 29 32 30 34 28 28 29 27 24 23 23 23 22 22 22 22 22 22 22 22 22 22 21 21 21 21
35 35 35 37 34 33 33 32 29 27 26 26 26 27 27 28 28 27 26 27 27 28 29 30 31 31 32
35 40 41 36 35 36 35 34 32 32 32 31 31 32 32 32 32 31 32 33 35 36 37 37 37 37 38
41 45 40 38 38 39 38 38 39 36 36 37 37 37 36 37 37 38 38 39 40 41 42 42 43 44 44
47 44 43 43 44 45 45 47 45 44 44 43 42 41 41 41 42 42 43 44 45 46 47 47 47 47 45
46 45 48 49 50 51 53 55 54 53 51 49 47 47 47 46 47 47 48 49 49 49 50 50 49 48 45
48 50 52 54 56 57 58 60 58 55 54 52 52 52 52 52 53 51 51 52 53 52 53 54 53 44 34
51 54 58 62 61 65 64 62 59 58 57 56 55 56 56 57 60 58 56 55 54 54 56 54 41 35 31
60 66 69 72 75 67 64 64 63 62 64 65 64 63 62 62 65 64 62 60 58 57 55 41 37 36 34
78 78 76 77 74 70 66 68 71 72 71 68 68 67 65 67 68 70 68 65 63 57 43 41 39 35 34
81 84 83 80 74 71 72 76 78 80 80 79 77 73 72 75 76 74 72 66 58 46 41 37 34 34 34

GFSFLT2_prec_cthk_075.txt.gz
RH
62 66 66 74 73 69 67 59 50 41 40 40 31 26 27 29 33 35 34 36 37 38 37 37 43 48 53
66 68 72 68 68 64 62 56 50 47 44 35 26 25 22 24 28 31 32 31 32 35 37 40 42 44 47
63 67 63 62 61 65 59 56 50 46 38 31 27 25 23 24 26 27 29 34 35 36 36 36 38 40 42
60 59 58 58 58 61 53 43 35 31 30 27 25 26 25 26 29 30 30 31 36 37 37 38 38 39 41
60 58 56 59 61 46 35 37 35 32 32 26 24 23 22 22 24 26 28 29 32 33 33 33 35 37 38
63 65 62 49 38 32 35 35 31 32 26 25 25 24 23 22 21 20 20 20 23 28 30 31 32 33 35
53 45 38 37 39 36 34 33 35 31 30 30 27 25 24 23 23 23 22 22 21 20 20 20 20 21 21
38 41 40 38 38 38 38 40 38 34 33 31 30 28 28 28 28 28 28 27 26 26 26 26 26 26 27
42 42 40 42 39 44 43 40 38 38 36 36 36 35 34 33 33 33 32 31 31 31 31 32 34 35 36
54 50 47 41 47 46 43 43 42 42 41 41 42 41 40 40 39 39 38 38 38 38 39 39 40 40 42
52 50 45 48 49 46 47 49 49 48 49 52 51 50 48 46 44 44 43 42 42 44 45 46 46 46 47
50 51 54 51 48 49 52 53 53 55 56 59 62 58 53 50 48 47 46 46 48 49 49 51 51 50 50
54 56 54 51 51 53 57 58 59 61 65 67 64 60 58 54 52 51 50 51 52 52 53 54 54 54 55
55 54 53 54 57 63 70 76 77 73 68 68 67 65 63 60 59 57 53 53 54 55 58 59 58 57 58
61 62 63 64 68 74 75 76 69 68 68 69 71 72 72 72 72 70 65 62 58 57 58 61 62 61 60
64 69 75 82 84 82 84 83 77 73 73 76 78 78 79 79 79 78 75 72 67 65 63 65 67 63 61
81 81 82 80 79 83 82 78 74 75 80 83 82 84 83 84 84 85 84 80 75 71 70 69 69 65 46

GFSFLT2_prec_cthk_078.txt.gz
RH
64 67 65 67 72 70 75 74 74 72 61 53 51 48 34 30 35 37 39 37 37 35 37 36 38 49 58
71 72 72 70 74 73 69 72 68 62 56 58 56 42 28 27 28 31 31 32 32 36 37 34 39 43 49
65 68 71 73 72 74 66 65 62 64 64 60 51 33 28 31 26 27 27 28 30 33 35 39 40 42 44
64 66 68 69 66 62 61 59 60 53 45 40 34 28 33 27 27 28 28 28 32 34 37 37 37 40 44
64 65 66 69 65 64 65 61 45 43 42 38 37 35 30 25 26 28 29 31 31 33 33 34 34 38 38
68 67 66 67 69 71 56 41 39 39 39 41 34 32 26 26 25 23 23 23 27 31 33 35 35 33 36
71 70 67 63 54 47 40 39 46 39 37 35 38 33 31 29 26 25 24 23 23 22 22 23 25 27 28
50 49 45 48 49 45 42 42 40 39 42 44 39 37 34 32 30 30 31 30 29 28 27 25 24 23 23
47 43 45 49 49 46 43 43 47 47 45 44 43 42 40 39 38 38 37 35 34 33 32 31 30 30 30
56 56 57 55 53 52 48 53 53 47 47 49 48 48 47 47 45 45 45 44 42 39 38 38 38 38 38
57 57 54 57 56 50 51 56 48 49 51 52 52 54 56 59 61 57 53 50 47 45 43 43 44 44 44
60 61 55 51 51 57 54 49 49 53 56 56 57 58 66 65 61 58 55 52 50 48 47 48 49 49 49
54 56 57 58 63 59 55 54 55 61 72 75 81 77 70 66 65 63 59 57 56 54 52 52 52 51 51
54 54 56 57 56 56 57 65 78 81 82 76 68 69 70 69 69 67 65 64 63 61 60 58 56 54 55
55 60 63 64 65 67 71 77 78 74 74 72 71 72 73 77 79 79 76 75 69 68 69 68 65 63 62
63 62 68 73 78 81 84 82 81 83 79 77 76 75 80 84 87 89 88 88 83 80 76 74 73 71 69
59 66 77 79 78 82 80 80 83 80 75 75 77 81 84 88 91 92 91 90 88 86 81 79 77 75 72

GFSFLT2_prec_cthk_081.txt.gz
RH
62 61 65 66 71 70 72 76 75 76 75 76 71 62 55 56 46 40 45 47 47 45 41 40 37 40 55
53 55 60 64 67 70 71 76 77 76 79 76 62 66 64 54 42 38 38 40 39 40 42 41 41 43 50
52 54 56 58 62 65 69 73 76 67 65 61 66 68 66 48 39 35 31 34 33 34 40 44 42 43 46
56 57 60 61 63 65 68 67 65 65 64 61 56 54 48 42 40 32 36 29 27 31 34 39 41 41 44
60 62 62 65 68 69 68 66 67 69 66 52 45 43 43 39 34 43 33 30 31 32 36 39 39 39 39
63 64 67 66 70 69 69 71 74 57 45 42 42 40 41 38 40 29 26 27 30 33 35 36 34 35 34
68 68 70 72 74 76 73 60 47 45 39 44 43 43 40 43 35 33 30 27 26 25 27 32 34 34 33
60 60 59 54 54 49 45 51 55 43 45 46 43 41 46 43 40 38 35 31 29 28 26 26 24 24 24
50 45 44 44 52 45 54 55 50 48 46 46 45 48 46 45 43 44 41 39 37 35 34 33 31 29 28
47 46 50 55 54 50 57 55 52 50 55 55 50 49 50 49 50 48 47 46 46 45 43 42 42 40 36
56 54 54 55 53 56 56 55 54 59 58 53 53 57 56 54 54 55 63 64 62 58 54 51 49 47 45
53 54 54 54 58 54 52 55 58 56 53 54 57 65 66 63 69 77 67 62 61 58 56 54 52 51 49
54 52 53 53 53 56 60 60 57 57 61 69 74 80 83 80 73 67 65 64 64 63 61 60 58 56 54
56 57 56 54 54 56 59 58 62 68 73 76 76 73 70 68 69 69 70 71 70 70 71 70 68 65 64
54 53 54 55 59 61 63 68 74 76 79 80 78 73 68 67 71 74 81 85 82 83 81 79 76 74 73
57 59 61 61 64 70 77 81 83 82 80 81 77 74 73 72 75 80 85 85 84 84 84 85 86 80 77
63 66 62 60 67 77 79 77 81 79 80 77 70 64 62 64 68 73 76 78 80 80 79 77 79 77 70

GFSFLT2_prec_cthk_084.txt.gz
RH
43 45 47 46 50 53 58 62 62 67 73 76 77 77 72 69 65 61 57 51 55 58 56 51 49 43 41
40 43 45 48 51 54 58 59 63 64 66 73 72 71 67 64 65 60 47 48 59 57 54 53 47 46 49
47 48 50 51 53 56 58 63 65 66 69 70 67 60 60 67 67 57 50 49 47 48 47 54 52 51 50
48 51 53 55 57 59 62 64 67 70 69 67 64 65 64 65 60 46 49 42 43 37 39 42 47 52 53
50 53 57 59 61 65 67 67 68 69 69 67 67 63 52 46 42 45 43 38 35 41 37 36 40 42 45
49 54 58 62 67 69 70 69 69 69 70 66 59 51 45 39 42 37 34 40 43 39 35 35 39 40 41
55 60 64 66 69 71 74 75 75 71 53 43 43 48 45 41 39 40 46 38 32 30 32 34 36 37 38
52 57 61 60 61 58 56 55 51 45 45 49 49 52 50 49 44 44 41 37 36 33 30 28 28 32 34
45 43 42 45 47 48 49 50 51 49 50 47 43 50 46 48 46 47 44 42 41 38 35 31 30 29 27
42 41 41 43 45 51 51 50 50 50 49 52 55 51 51 49 50 50 49 48 47 45 44 42 41 40 38
41 46 49 46 49 51 52 51 52 55 54 57 55 53 54 58 62 57 53 56 59 58 56 53 52 51 49
50 52 52 53 51 51 53 52 51 51 52 54 57 60 65 66 65 64 63 78 79 71 69 67 64 62 59
53 52 58 57 55 52 50 49 55 56 57 57 60 66 72 78 80 76 73 70 67 64 62 61 62 61 59
61 58 55 53 52 53 54 55 55 56 62 68 69 70 73 73 71 68 68 68 68 68 69 69 67 67 66
61 59 59 56 54 53 55 58 62 66 70 73 76 78 79 74 70 65 64 67 75 82 83 82 80 78 77
61 59 58 55 56 56 58 66 73 78 80 81 80 80 79 75 73 69 67 68 73 77 78 79 80 78 81
55 55 59 64 64 64 65 70 75 78 77 81 81 80 75 64 56 53 54 57 60 63 64 65 67 67 69

GFSFLT2_prec_cthk_087.txt.gz
RH
35 35 36 36 39 41 44 47 50 53 54 57 60 66 66 68 67 69 66 62 60 54 63 59 63 56 49
36 38 39 41 43 45 49 52 53 56 59 62 64 65 64 65 60 62 60 64 57 54 63 64 60 63 61
39 40 42 43 43 45 48 51 55 57 63 64 66 66 66 63 57 60 62 57 53 56 60 64 67 61 57
39 39 43 45 47 50 51 54 57 60 64 66 69 65 64 60 58 63 62 51 51 49 48 55 60 61 65
41 41 42 46 47 49 53 56 62 64 66 67 65 65 66 61 52 51 53 44 44 43 45 50 48 55 60
41 44 47 51 53 56 57 61 65 66 68 67 67 67 62 55 49 46 36 33 40 41 38 40 45 50 47
46 50 50 54 55 57 60 61 65 70 72 69 56 49 45 42 40 41 39 44 44 41 44 43 43 46 43
49 49 52 52 55 54 54 55 55 56 52 48 44 39 40 45 48 51 47 43 43 46 38 34 34 39 40
45 42 40 41 41 43 45 47 45 44 45 46 44 42 42 45 49 49 48 45 51 44 41 39 37 33 31
42 40 36 35 35 40 44 46 48 48 45 45 46 46 46 45 49 51 49 50 51 49 47 47 44 40 37
41 38 36 35 41 45 47 50 50 50 48 46 51 52 51 54 54 57 62 62 57 53 59 61 58 52 50
40 38 37 43 47 50 48 49 49 51 48 49 50 51 54 58 63 64 65 64 65 70 73 71 68 66 63
43 42 42 45 52 54 53 53 52 49 48 49 52 56 62 64 67 72 76 75 73 70 69 66 63 62 63
45 42 44 50 57 56 55 52 51 50 51 52 57 66 68 67 67 69 70 70 68 68 67 65 65 66 66
49 46 52 59 57 55 54 52 52 53 58 63 67 69 71 73 76 74 72 69 65 64 69 77 80 80 81
55 54 59 60 58 59 54 51 52 56 65 72 74 78 79 78 78 75 71 68 68 68 68 69 70 70 70
62 59 64 63 59 58 55 56 60 68 73 72 75 78 81 80 77 70 60 53 51 52 54 56 57 55 55

GFSFLT2_prec_cthk_090.txt.gz
RH
42 37 34 34 34 35 36 39 41 42 44 46 47 52 55 56 58 56 56 54 58 58 59 54 56 67 70
38 39 37 36 36 38 38 40 42 44 47 50 52 56 60 61 60 59 57 55 52 54 50 60 72 65 69
37 36 38 36 37 38 39 41 43 46 45 50 54 57 61 63 62 59 54 59 57 52 49 60 76 75 66
38 37 36 38 39 38 41 42 44 45 48 53 56 60 65 64 63 58 56 61 55 50 49 62 67 71 73
39 37 38 39 39 41 44 46 46 49 53 54 58 57 61 64 60 57 50 53 50 50 48 47 58 61 67
39 39 38 39 42 46 46 50 50 54 53 57 56 59 61 62 60 51 43 41 41 42 42 41 39 61 58
41 41 43 43 45 45 50 51 52 53 54 59 61 63 45 49 48 42 40 36 37 34 39 46 45 44 52
45 47 49 47 45 46 46 48 48 50 49 46 48 41 36 36 39 39 40 40 42 45 47 47 47 49 48
49 50 47 47 44 41 40 40 39 41 42 42 42 40 38 39 40 42 46 45 48 41 42 46 40 37 35
51 49 43 39 38 32 31 35 40 41 41 44 46 42 42 43 44 42 44 49 51 48 49 51 47 44 43
55 49 44 40 33 31 34 41 42 44 44 43 43 47 48 51 51 50 54 60 61 56 54 53 54 52 52
55 50 43 37 33 35 43 45 45 51 50 48 48 52 52 51 52 58 62 63 61 62 67 66 68 72 67
58 52 43 40 37 41 43 46 49 52 51 49 48 50 51 53 63 67 68 70 71 71 71 69 66 68 69
60 54 48 42 42 43 47 54 56 56 51 49 51 53 58 65 67 67 67 67 68 68 67 67 66 64 63
63 59 50 47 45 47 50 58 57 55 54 54 55 62 65 67 69 69 72 74 70 69 67 65 67 73 75
63 61 55 52 50 54 57 59 57 57 55 57 62 66 72 75 78 77 76 74 70 67 68 69 72 70 67
67 64 66 62 59 58 59 59 60 58 56 63 69 74 74 77 81 79 75 71 67 64 59 55 54 53 52

GFSFLT2_prec_cthk_093.txt.gz
RH
60 55 47 41 36 33 32 32 34 37 36 36 40 42 43 47 48 49 50 52 53 49 49 49 47 45 45
59 52 45 39 37 35 35 34 33 36 38 39 43 43 44 48 53 55 54 50 52 47 50 50 47 53 56
55 49 40 38 37 36 34 36 35 37 38 40 43 44 46 51 54 56 56 57 52 56 54 47 53 63 73
47 44 41 38 38 37 37 36 39 39 41 43 45 46 49 53 55 57 56 54 49 55 47 48 58 64 73
47 40 39 38 39 39 39 38 40 44 45 46 49 50 52 51 54 58 55 53 46 44 43 41 50 59 63
47 39 38 40 41 40 42 43 45 46 47 48 50 50 52 53 53 55 55 46 40 36 37 43 40 62 62
42 38 41 42 44 46 46 46 48 47 46 47 50 51 57 58 48 48 44 37 33 32 33 31 38 46 51
42 41 44 45 49 50 49 48 47 48 45 46 48 49 44 41 37 34 35 35 35 36 38 39 36 44 52
46 47 50 51 51 52 49 47 42 38 37 35 38 38 39 39 39 39 38 41 43 42 41 41 40 43 45
55 55 56 54 49 46 45 39 39 34 32 37 38 39 36 39 42 42 41 38 41 46 47 45 44 46 39
64 62 59 54 50 45 39 34 31 31 35 37 39 40 42 45 46 47 45 46 51 53 54 52 50 50 48
69 69 64 58 52 46 40 36 34 38 43 40 42 44 48 52 52 53 53 58 62 63 62 63 62 56 59
77 76 69 61 55 50 42 37 38 39 42 45 50 52 49 51 51 53 63 68 69 67 66 67 67 63 62
87 81 73 65 59 53 43 38 40 40 44 50 54 53 51 52 58 66 68 70 68 66 67 67 66 66 65
93 87 78 70 62 57 47 41 42 45 52 55 53 53 55 60 64 68 68 68 70 69 68 66 65 66 68
97 91 80 72 65 60 51 44 44 50 55 53 55 57 63 67 69 73 77 79 78 75 69 66 66 68 72
98 96 84 77 72 62 55 53 50 53 55 56 57 63 66 71 73 76 81 83 78 74 70 67 66 65 64

GFSFLT2_prec_cthk_096.txt.gz
RH
86 84 79 71 66 59 50 42 34 32 32 33 36 35 37 39 38 39 41 44 46 48 49 50 45 45 46
87 80 76 69 69 57 45 38 36 35 34 37 38 36 38 39 40 42 43 45 44 47 45 42 44 47 51
81 76 76 70 61 50 40 36 35 35 36 36 37 38 40 41 41 42 44 45 47 47 46 45 42 50 60
77 74 69 62 55 43 38 37 36 37 36 37 38 39 41 42 43 44 46 48 48 45 45 43 40 49 60
68 63 54 52 48 43 40 37 37 39 39 39 39 42 42 43 44 45 47 47 48 43 42 42 39 48 53
73 64 64 57 50 39 39 39 40 42 44 43 43 44 45 46 45 46 49 49 48 39 35 33 34 40 54
86 93 84 61 49 42 41 41 45 47 47 45 44 43 46 46 48 48 42 47 42 33 29 27 26 32 50
85 82 86 69 48 44 43 48 50 49 49 47 44 41 42 44 46 37 30 32 33 32 32 30 29 32 37
84 79 72 55 45 46 49 52 52 52 49 46 39 37 36 36 34 29 27 31 35 39 36 36 35 37 35
64 67 58 54 53 55 56 56 55 51 46 40 36 35 34 33 34 33 33 35 38 41 40 41 39 39 39
66 62 61 60 61 61 59 58 57 47 41 37 35 37 36 32 33 35 39 41 41 40 40 46 44 43 45
71 68 66 67 67 65 63 62 55 46 42 38 37 35 38 37 36 41 44 49 50 53 53 54 56 57 51
75 74 75 74 69 67 67 61 57 48 43 44 41 39 39 42 42 48 51 55 58 59 58 62 66 65 63
85 85 82 78 74 71 68 63 60 53 46 44 45 42 42 44 46 50 54 64 65 65 63 65 67 65 64
94 92 91 87 80 74 70 67 64 55 48 47 44 44 46 49 50 55 62 64 65 65 64 65 65 66 65
99 96 96 92 85 78 74 72 67 58 52 47 45 49 49 53 57 61 65 65 67 68 71 70 69 68 67
98 99 98 98 86 77 76 74 68 64 55 48 49 53 53 56 64 68 68 70 71 74 76 73 69 68 68

GFSFLT2_prec_cthk_099.txt.gz
RH
98 99 97 94 89 88 84 76 65 54 45 39 33 32 32 32 31 33 35 36 38 38 37 38 39 36 36
97 95 95 94 90 90 85 77 68 62 48 34 32 32 33 33 32 36 38 39 40 41 39 40 39 36 38
93 92 94 91 87 89 84 78 74 61 44 33 31 33 32 33 34 39 40 40 41 41 41 41 39 35 40
99 95 95 91 91 86 80 78 68 55 37 33 34 34 35 36 37 40 41 41 42 41 41 39 38 35 43
98 99 97 85 81 83 73 69 60 46 34 33 34 36 37 39 40 42 42 42 40 41 41 36 34 33 38
99 97 95 87 83 75 68 59 49 39 35 36 37 40 41 43 43 43 43 42 41 41 40 30 30 30 32
97 98 97 91 89 83 77 67 50 42 40 41 41 44 46 44 44 43 43 42 37 40 34 26 25 26 30
94 96 95 94 94 98 97 84 70 50 43 43 43 46 46 46 42 42 43 36 29 27 25 25 27 27 26
94 99 97 98 93 94 87 81 71 62 48 46 46 46 46 43 40 37 33 27 24 23 27 29 31 32 30
76 81 87 94 91 88 82 72 64 58 47 48 49 46 43 39 38 34 31 27 25 27 30 34 35 36 32
73 76 75 77 81 80 75 61 58 52 50 50 48 45 43 37 37 35 33 30 28 30 33 35 39 40 38
78 78 76 71 74 70 65 61 60 62 58 54 52 49 47 43 36 34 33 32 32 35 39 41 44 49 48
86 88 91 94 79 71 69 66 68 66 63 59 54 51 45 42 39 36 37 37 38 43 50 56 60 61 61
86 90 93 88 82 79 75 70 68 66 63 60 57 50 44 41 41 40 42 43 45 53 60 64 63 62 63
91 94 94 91 88 85 81 75 71 70 65 62 59 54 50 45 44 44 44 48 58 64 64 64 63 64 64
96 99 97 97 95 91 86 81 78 75 68 65 59 55 52 48 46 46 48 54 63 68 65 65 68 68 66
98 99 98 99 99 97 92 85 80 76 72 67 63 58 54 52 49 51 53 60 67 68 70 70 71 73 70

GFSFLT2_prec_cthk_102.txt.gz
RH
97 92 93 97 96 97 94 94 92 91 86 80 73 60 43 32 33 32 29 29 29 31 32 32 34 33 30
95 94 97 97 98 96 96 95 94 92 86 80 69 55 41 34 37 35 31 30 31 34 34 32 33 33 30
98 98 99 96 96 96 96 96 96 93 87 81 70 58 47 40 35 32 32 32 32 32 33 32 33 31 29
99 98 97 98 98 98 97 94 94 92 87 80 69 57 49 41 33 32 34 35 36 35 34 32 33 30 28
98 98 98 99 98 95 97 94 94 90 86 73 62 51 45 43 35 35 35 34 35 35 34 34 32 27 26
95 96 99 97 99 99 98 98 95 90 78 63 54 47 43 42 39 38 37 38 38 39 36 35 31 23 24
92 96 93 89 95 97 98 96 93 90 78 64 54 45 40 40 39 40 42 40 44 40 34 34 27 21 20
82 86 89 97 98 96 97 97 96 91 89 77 68 60 52 47 44 49 45 41 40 35 29 26 23 20 20
68 76 83 84 93 96 94 98 98 97 96 81 74 71 65 57 53 44 39 39 35 26 24 24 24 23 24
65 66 69 95 85 99 93 99 98 98 90 79 74 72 67 56 45 40 38 35 32 28 28 27 25 26 28
71 71 73 76 80 98 95 99 95 91 84 73 72 71 63 47 42 40 40 40 37 33 30 28 26 28 31
75 79 76 74 80 85 80 88 88 79 70 65 60 60 55 49 36 41 42 43 38 35 32 31 30 32 34
72 72 78 78 89 85 85 77 77 72 67 64 60 52 51 54 49 44 40 42 37 35 35 35 35 41 46
86 85 83 90 89 85 88 87 86 82 76 70 68 58 56 57 53 45 41 39 39 39 40 43 48 55 60
90 96 96 92 97 99 95 98 92 91 83 77 75 68 60 53 47 47 43 43 44 44 45 52 56 61 62
80 93 98 95 91 94 97 98 97 94 87 82 75 68 65 61 54 50 47 47 50 48 54 60 60 63 62
81 84 95 98 98 98 94 97 98 93 89 82 75 71 70 68 58 52 49 50 54 58 58 61 61 65 66

GFSFLT2_prec_cthk_108.txt.gz
RH
95 94 96 94 93 91 95 95 94 94 96 97 97 96 94 95 94 87 86 77 67 59 47 38 29 27 28
98 98 98 96 92 92 93 96 94 95 97 98 99 97 97 96 90 88 81 74 71 56 41 35 33 32 32
96 97 96 95 94 94 95 97 95 95 96 98 99 98 97 93 93 89 79 72 62 51 41 40 39 37 33
95 98 95 96 98 98 97 97 98 97 97 98 98 97 96 97 94 86 75 67 61 56 48 45 43 40 32
91 90 92 93 96 97 97 96 96 97 97 98 97 97 96 96 91 81 76 69 64 57 50 48 45 40 35
75 83 82 88 88 91 94 91 95 97 98 96 96 94 93 94 88 83 76 67 60 55 50 47 43 40 35
47 60 70 77 84 87 91 93 91 90 97 96 97 97 98 96 92 88 78 64 56 52 50 48 44 37 35
39 46 54 61 65 79 87 90 97 97 97 90 95 93 98 98 96 90 78 64 54 53 54 51 44 39 39
23 32 45 52 60 62 68 86 86 89 97 98 97 99 99 97 98 95 84 70 61 59 57 54 46 37 36
19 21 28 41 53 61 66 68 84 87 86 96 98 99 98 98 98 95 89 81 72 66 62 54 45 35 29
17 18 23 34 41 54 65 67 71 78 74 86 94 99 98 93 97 97 93 84 76 70 61 54 44 30 25
18 19 20 26 37 45 60 68 71 70 86 87 86 89 91 93 97 98 94 83 77 69 62 53 37 29 28
25 31 29 25 38 45 53 64 75 86 80 78 89 89 93 97 97 95 96 91 86 77 62 50 38 32 30
35 33 40 35 42 52 56 57 70 79 90 90 90 91 87 96 98 96 92 85 82 75 64 52 35 32 33
40 45 44 46 51 59 61 66 81 89 96 95 99 96 99 99 98 93 83 79 73 65 56 41 34 36 38
46 52 60 56 65 77 85 71 67 91 98 98 98 99 96 94 99 97 81 71 61 56 52 39 39 41 41
57 59 65 64 72 92 98 78 76 80 92 98 97 99 99 98 97 96 84 69 61 52 52 46 44 43 44

GFSFLT2_prec_cthk_111.txt.gz
RH
96 94 97 96 96 94 91 90 88 88 86 88 91 92 94 95 97 98 99 97 95 93 85 76 65 53 42
96 97 98 99 98 97 96 96 92 91 93 91 90 90 95 96 97 98 99 97 96 91 86 74 62 52 39
98 98 98 99 98 97 97 96 95 95 94 91 92 94 96 97 98 99 98 98 97 90 83 72 62 46 37
98 98 98 98 98 97 96 96 93 94 95 95 95 97 97 98 98 99 99 97 93 89 78 70 54 42 39
82 84 86 91 91 90 85 87 91 95 95 96 96 96 97 98 98 99 97 95 94 89 74 62 51 43 43
38 44 56 68 77 84 83 81 82 88 89 86 88 93 96 97 98 97 96 95 91 82 71 64 57 50 47
25 30 35 42 52 64 78 79 80 84 85 83 86 88 87 94 94 93 94 92 88 79 73 67 61 55 49
17 22 25 29 39 49 54 66 73 75 79 79 85 85 90 90 90 93 93 94 90 82 75 67 58 51 48
15 18 20 22 25 33 48 55 60 63 74 79 80 86 91 97 95 96 98 96 95 92 83 66 56 52 49
18 14 13 12 13 23 36 47 53 55 58 75 79 87 88 95 98 99 99 98 97 95 84 72 65 60 53
23 16 16 18 14 17 21 38 49 51 51 65 72 82 89 87 95 98 98 99 99 99 90 79 71 68 61
29 30 27 23 22 22 19 23 43 49 53 63 67 73 81 89 90 91 94 99 99 98 94 83 75 70 64
29 25 27 32 29 22 27 24 31 45 53 56 61 72 75 89 89 90 97 98 98 99 95 89 80 71 62
39 38 33 27 27 30 25 29 32 38 44 56 54 68 75 82 88 89 90 98 97 99 98 94 83 70 58
42 38 34 32 34 36 39 36 41 43 47 63 59 64 76 84 84 89 97 96 96 98 99 95 87 74 55
48 46 45 44 45 40 54 48 49 47 53 54 77 68 69 79 83 94 98 99 98 97 98 96 90 76 53
56 54 52 53 52 50 50 58 64 64 68 72 76 64 69 91 98 97 89 94 96 97 96 94 86 72 56

GFSFLT2_prec_cthk_114.txt.gz
RH
86 86 92 97 98 98 95 97 96 95 92 90 92 90 88 87 87 89 92 92 93 96 97 96 93 91 83
91 92 94 97 97 98 98 99 97 97 96 96 94 92 92 90 89 88 90 92 93 96 98 97 94 94 84
93 97 97 98 99 98 99 99 98 98 98 98 96 97 96 94 91 93 93 93 94 98 98 97 96 94 82
77 88 92 95 98 99 99 98 97 97 98 98 98 97 96 96 96 95 95 96 98 98 98 98 97 88 83
46 50 66 82 92 96 96 95 96 97 97 96 97 96 93 96 96 97 98 97 99 99 98 98 93 88 82
26 29 31 49 54 65 81 86 79 89 85 83 85 89 93 89 88 94 97 99 98 97 99 97 93 89 75
19 19 18 18 23 30 37 47 57 64 76 76 80 83 88 82 84 87 93 96 95 97 97 96 94 87 69
21 19 17 14 14 19 22 27 37 46 57 66 73 75 81 82 83 89 87 90 89 91 91 94 90 80 68
23 23 21 19 18 17 13 17 23 29 41 50 58 71 74 78 83 85 86 88 84 84 88 89 86 79 73
26 25 24 23 23 22 23 24 24 25 32 38 51 59 71 74 78 83 87 88 88 88 88 89 90 84 80
31 29 25 26 27 30 32 30 29 34 36 39 43 51 59 64 72 79 83 88 88 91 93 93 93 93 92
36 34 32 31 29 26 26 31 30 29 33 37 44 47 51 57 67 79 80 86 88 88 90 95 95 98 95
39 37 36 34 31 28 25 23 23 26 26 28 38 47 47 50 59 67 81 84 88 89 91 91 90 97 96
41 39 38 37 34 32 34 34 32 25 26 24 29 40 46 53 52 61 68 79 82 91 92 99 95 93 96
43 42 39 37 33 34 38 37 37 33 28 30 30 37 45 55 55 53 69 70 82 87 99 98 98 93 98
47 47 47 45 39 36 39 41 40 35 41 37 34 39 43 51 54 57 60 69 81 79 90 92 98 99 98
56 57 56 51 50 47 47 50 53 47 46 51 52 47 48 48 50 48 50 60 79 87 89 98 99 99 99

GFSFLT2_prec_cthk_117.txt.gz
RH
85 88 84 83 86 93 87 91 93 94 95 95 96 92 92 92 93 95 94 93 91 88 91 96 97 97 97
78 78 85 91 89 92 94 97 99 99 98 98 98 96 94 96 94 95 95 94 92 90 93 92 97 98 98
74 82 83 84 91 95 93 98 95 97 98 97 98 97 96 95 96 95 96 95 93 93 94 96 96 97 98
56 63 61 65 74 86 94 95 96 98 97 98 97 98 98 99 98 98 98 97 96 96 96 96 97 98 98
47 39 35 47 56 60 69 91 95 98 98 98 98 98 98 97 96 96 96 96 98 98 98 98 98 98 99
22 23 25 19 28 39 40 51 73 86 96 97 98 98 97 96 97 96 96 96 97 99 98 98 99 99 98
21 18 17 14 14 13 21 28 30 45 64 74 86 87 87 86 87 94 92 89 91 98 99 98 99 99 97
28 26 25 21 20 19 16 13 15 14 20 35 39 45 65 76 78 81 87 85 88 92 98 99 98 98 97
35 32 28 26 25 26 22 23 23 18 13 17 17 24 33 44 66 77 82 84 87 89 92 91 94 95 96
37 32 29 28 28 30 32 34 34 33 28 32 32 31 28 25 40 59 72 81 83 85 89 93 91 90 89
40 33 27 26 24 25 27 29 29 38 37 30 32 37 38 34 33 48 64 71 78 82 84 90 92 91 92
48 40 34 30 30 29 27 24 24 26 23 28 35 30 37 38 38 37 50 67 72 78 81 83 91 94 96
47 45 40 36 34 32 30 26 26 27 29 27 28 30 31 33 39 40 43 56 73 77 76 80 84 87 91
50 45 43 40 38 38 37 33 32 27 29 31 29 36 33 28 32 41 40 49 60 74 72 77 82 87 88
50 46 44 42 40 40 39 38 38 36 30 33 36 34 39 38 34 35 44 46 50 64 73 79 79 82 88
53 53 49 46 44 41 42 41 37 35 37 35 40 38 41 39 38 35 44 49 47 56 71 75 88 78 89
56 55 53 52 50 46 48 46 43 44 43 43 50 49 50 48 36 35 46 46 47 51 62 71 77 80 95

GFSFLT2_prec_cthk_120.txt.gz
RH
71 78 75 84 85 91 92 85 86 85 83 80 81 87 89 92 91 91 94 95 97 96 96 92 93 95 95
82 80 76 74 83 84 84 93 89 85 80 84 88 89 91 96 95 95 97 98 96 94 98 96 95 95 95
65 75 79 77 66 75 78 74 83 85 84 93 93 95 96 97 97 96 94 95 97 95 98 96 95 97 94
40 39 44 58 63 58 70 64 71 82 94 93 95 94 98 98 97 98 97 97 98 97 95 97 96 96 96
34 44 40 32 36 57 49 52 56 62 77 90 92 94 97 98 99 99 98 98 98 98 96 96 96 97 97
36 30 26 39 38 24 39 47 38 51 47 62 87 95 98 98 99 98 98 97 96 96 96 96 96 98 99
31 36 36 26 25 32 25 24 25 17 36 42 43 70 90 96 98 98 98 97 96 96 94 96 98 98 99
39 36 36 34 34 31 28 28 26 19 14 27 31 33 48 70 85 96 97 96 95 95 95 94 98 99 99
46 43 42 36 31 32 29 30 28 26 18 30 23 30 28 34 48 60 81 81 85 93 93 91 92 98 99
41 42 44 42 37 35 33 33 33 33 28 27 26 25 25 25 26 32 38 54 66 78 92 92 92 95 98
48 46 43 41 38 37 37 37 35 33 27 29 28 23 24 26 18 24 30 37 55 60 69 82 90 92 92
47 44 43 40 40 38 37 37 39 39 31 28 33 30 31 29 28 16 16 29 41 60 62 69 76 87 93
46 47 46 43 40 38 36 36 36 34 35 32 33 31 31 29 31 29 25 16 30 50 63 60 68 74 82
49 52 50 48 44 42 38 35 35 28 30 33 34 38 35 33 33 30 27 30 22 36 58 69 66 67 74
53 53 51 48 45 43 42 41 39 34 28 30 32 35 39 38 35 35 29 26 30 26 42 63 71 71 73
57 56 54 51 48 46 46 44 40 37 37 33 37 39 36 35 39 32 31 29 25 30 32 46 63 77 79
58 56 55 54 54 53 51 48 44 43 42 40 42 48 47 40 34 42 38 36 32 31 35 41 48 63 74